Weather in Berezovka

Russia / Republic of Crimea     45°34′39″N   33°20′38″E
temp.,
°C
wind,
m/s
gust,
m/s
humid.,
%
clouds,
%
prec.,
mm/h
press.,
hPa
HPBL,
m
28 february, sun
sun2800:00+5nnw6976100 0.0 1020761
03:00+5nnw6877100 0.0 1020654
06:00+4nnw5886100 0.1 1020623
09:00+4nnw6988100 0.4 1021670
12:00+5nw6775100 0.3 1023865
15:00+5nnw787296 0.5 1023926
18:00+4nw687796 0.2 1023739
21:00+2nw378776 0.2 1024241
1 march, mon
mon100:00+3wnw257994 0.0 1025219
03:00+1wnw357793 0.1 1024130
06:000w128263 0.0 102423
09:00+2nnw128381 0.0 1025243
12:00+4ne1169100 0.1 1026721
15:00+6n225996 0.1 10261057
18:00+5nne456175 0.0 1027480
21:00+2nne348240 0.0 102981
2 march, tue
tue200:00+1n34880 0.0 103088
03:000nne348911 0.0 103177
06:00−1n33890 0.0 103154
09:00+2n24712 0.0 1031256
12:00+4nw445522 0.0 10311134
15:00+5wnw555440 0.0 10291035
18:00+4w576766 0.0 1027759
21:00+2wsw5118138 0.0 1026389
3 march, wed
wed300:00+4wsw614810 0.0 1024397
03:00+4w613852 0.0 1022396
06:00+3nnw612887 0.0 1022399
09:00+4n7106553 0.0 10241232
12:00+7nnw8105593 0.0 10261283
15:00+8nnw685046 0.0 10261279
18:00+7nnw36520 0.0 1027336
21:00+4wnw23750 0.0 102832
4 march, thu
thu400:00+3wnw22751 0.0 102822
03:00+1wsw12811 0.0 102822
06:00+1sw22830 0.0 102722
09:00+5ssw35720 0.0 1026232
12:00+8sw66582 0.0 10241068
15:00+8sw78551 0.0 1022921
18:00+6sw79660 0.0 1021763
21:00+5ssw612780 0.0 1020506